Fairbanks, AK

6:57 PM AKDT on October 22, 2019 (GMT -0800)
Fairbanks International

Weather History for PAFA - May, 2019

Change the Weather History Date:

Friday, May 17, 2019

  Actual Average Record
Temperature  
Mean Temperature 57 °F 50 °F  
Max Temperature 68 °F 62 °F 77 °F (2015)
Min Temperature 46 °F 38 °F 12 °F (1918)
Degree Days  
Heating Degree Days 8 15  
Month to date heating degree days 257 314  
Since 1 July heating degree days 11519 13338  
Cooling Degree Days 0 0  
Month to date cooling degree days 0 0  
Year to date cooling degree days 0 0  
Growing Degree Days 7 (Base 50)    
Moisture  
Dew Point 38 °F    
Average Humidity 51    
Maximum Humidity 90    
Minimum Humidity 13    
Precipitation  
Precipitation 0.02 in 0.02 in 0.80 in (1919)
Month to date precipitation 0.24 0.29  
Year to date precipitation 2.72 1.85  
Snow  
Snow 0.00 in 0.00 in 0.70 in (1992)
Month to date snowfall T 0.7  
Since 1 July snowfall 57.5 64.8  
Snow Depth 0.00 in    
Sea Level Pressure  
Sea Level Pressure 29.57 in    
Wind  
Wind Speed 6 mph (ENE)    
Max Wind Speed 17 mph    
Max Gust Speed 25 mph    
Visibility 10 miles    
Events Rain    
T = Trace of Precipitation, MM = Missing Value Source: NWS Daily Summary

Daily Weather History Graph

Daily Weather History Graph

Search for Another Location

Airport or City:

Astronomy

May. 17, 2019 Rise Set
Actual Time 4:22 AM AKDT 11:16 PM AKDT
Civil Twilight 2:20 AM AKDT 1:15 AM AKDT
Nautical Twilight Sun does not rise Sun does not rise
Astronomical Twilight Sun does not rise Sun does not rise
Moon 9:19 PM AKDT (5/17) 5:14 AM AKDT (5/17)
Length of Visible Light 22h 55m
Length of Day
18h 54m
Waxing Gibbous, 99% of the Moon is Illuminated
May 17
Waxing Gibbous
May 18
Full
May 26
Last Quarter
Jun 3
New
Jun 9
First Quarter

Hourly Weather History & Observations

Time (AKDT) Temp. Dew Point Humidity Pressure Visibility Wind Dir Wind Speed Gust Speed Precip Events Conditions
12:53 AM 57.0 °F 36.0 °F 45% 29.49 in 10.0 mi ESE 17.3 mph 25.3 mph N/A   Mostly Cloudy
1:53 AM 54.0 °F 37.9 °F 55% 29.52 in 10.0 mi SE 10.4 mph - 0.00 in Rain Light Rain
2:53 AM 48.9 °F 44.1 °F 83% 29.52 in 10.0 mi Calm Calm - 0.02 in   Mostly Cloudy
3:53 AM 48.0 °F 43.0 °F 83% 29.53 in 10.0 mi NE 6.9 mph - 0.00 in   Mostly Cloudy
4:53 AM 48.0 °F 44.1 °F 86% 29.54 in 10.0 mi Calm Calm - N/A   Mostly Cloudy
5:53 AM 46.9 °F 44.1 °F 90% 29.54 in 10.0 mi Calm Calm - N/A   Mostly Cloudy
6:53 AM 46.9 °F 43.0 °F 86% 29.56 in 10.0 mi Calm Calm - N/A   Mostly Cloudy
7:53 AM 50.0 °F 43.0 °F 77% 29.56 in 10.0 mi Calm Calm - N/A   Mostly Cloudy
8:53 AM 51.1 °F 42.1 °F 71% 29.57 in 10.0 mi SE 3.5 mph - N/A   Mostly Cloudy
9:53 AM 54.0 °F 41.0 °F 62% 29.58 in 10.0 mi ESE 3.5 mph - N/A   Scattered Clouds
10:53 AM 57.2 °F 39.2 °F 51% 29.57 in 10.0 mi Calm Calm - N/A   Scattered Clouds
11:53 AM 60.1 °F 37.0 °F 42% 29.57 in 10.0 mi Calm Calm - N/A   Scattered Clouds
12:53 PM 63.0 °F 34.0 °F 34% 29.57 in 10.0 mi NE 6.9 mph - N/A   Scattered Clouds
1:53 PM 63.0 °F 33.1 °F 33% 29.57 in 10.0 mi Calm Calm - N/A   Scattered Clouds
2:53 PM 64.9 °F 32.0 °F 29% 29.56 in 10.0 mi Calm Calm - N/A   Mostly Cloudy
3:53 PM 66.0 °F 27.0 °F 23% 29.56 in 10.0 mi West 5.8 mph - N/A   Mostly Cloudy
4:53 PM 66.9 °F 27.0 °F 22% 29.55 in 10.0 mi Variable 5.8 mph - N/A   Mostly Cloudy
5:53 PM 64.9 °F 37.0 °F 36% 29.56 in 10.0 mi East 12.7 mph - N/A   Mostly Cloudy
6:53 PM 66.0 °F 36.0 °F 33% 29.56 in 10.0 mi East 10.4 mph - N/A   Mostly Cloudy
7:53 PM 64.0 °F 37.9 °F 38% 29.57 in 10.0 mi ENE 9.2 mph - N/A   Mostly Cloudy
8:53 PM 60.1 °F 37.9 °F 44% 29.59 in 10.0 mi NE 10.4 mph - N/A   Mostly Cloudy
9:53 PM 57.9 °F 37.9 °F 47% 29.62 in 10.0 mi ENE 3.5 mph - N/A   Mostly Cloudy
10:53 PM 55.9 °F 39.0 °F 53% 29.62 in 10.0 mi NNW 8.1 mph - N/A   Mostly Cloudy
11:53 PM 54.0 °F 37.9 °F 55% 29.63 in 10.0 mi NNW 5.8 mph - N/A   Mostly Cloudy